Location: Croydon
(51.3762°N, 0.0982°W)
Time: 15:50:15
(UTC+00:00)

Tiros 1 - Visible Passes

Search period start: 14 November 2019 00:00
Search period end: 24 November 2019 00:00
Orbit: 630 x 664 km, 48.4° (Epoch: 14 November)

Date Brightness Start Highest point End Pass type
(mag) Time Alt. Az. Time Alt. Az. Time Alt. Az.
14 Nov 7.4 18:14:44 10° WSW 18:19:18 59° S 18:20:39 41° ESE visible
14 Nov 9.5 19:56:43 10° W 19:58:18 21° W 19:58:18 21° W visible
15 Nov 7.8 16:58:56 10° SW 17:03:21 47° SSE 17:07:50 10° E visible
15 Nov 7.2 18:40:41 10° W 18:45:16 61° S 18:45:33 59° SSE visible
15 Nov 10.1 20:22:47 10° W 20:23:12 12° W 20:23:12 12° W visible
16 Nov 7.5 17:24:44 10° WSW 17:29:17 58° S 17:32:48 17° E visible
16 Nov 7.9 19:06:42 10° W 19:10:27 47° SW 19:10:27 47° SW visible
17 Nov 7.4 17:50:41 10° W 17:55:15 61° S 17:57:44 26° ESE visible
17 Nov 8.9 19:32:46 10° W 19:35:24 28° WSW 19:35:24 28° WSW visible
18 Nov 7.6 18:16:41 10° W 18:21:13 54° SSW 18:22:42 37° SE visible
18 Nov 9.7 19:59:00 10° W 20:00:23 17° WSW 20:00:23 17° WSW visible
19 Nov 7.5 17:00:40 10° W 17:05:15 61° S 17:09:51 10° ESE visible
19 Nov 8.0 18:42:44 10° W 18:47:06 40° SSW 18:47:45 38° S visible
20 Nov 7.7 17:26:40 10° W 17:31:12 55° S 17:35:12 13° ESE visible
20 Nov 8.7 19:08:58 10° W 19:12:52 27° SSW 19:12:52 27° SSW visible
21 Nov 8.1 17:52:43 10° W 17:57:05 42° SSW 18:00:25 16° SE visible
21 Nov 9.6 19:35:41 10° WSW 19:38:06 16° SW 19:38:06 16° SW visible
22 Nov 7.8 16:36:39 10° W 16:41:11 56° S 16:45:44 10° ESE visible
22 Nov 8.8 18:18:55 10° W 18:22:53 28° SSW 18:25:46 15° SSE visible
23 Nov 8.2 17:02:42 10° W 17:07:05 43° SSW 17:11:30 10° SE visible
23 Nov 9.6 18:45:33 10° WSW 18:48:30 17° SW 18:51:19 11° S visible
